User: anonymous   Login
Location: Fort Wayne
(41.1310°N, 85.1290°W)
Time: 07:11:57
(UTC-05:00)
Language:

IDEFIX/ARIANE 42P - Orbit

View from above orbital plane
View from above orbital plane
View from above satellite
View from above satellite

Ground track
Ground track

The orbit data is extracted from the following two-line orbital elements,

1 27422U 02021B   17345.90673115 -.00000021 +00000-0 +77780-5 0  9992
2 27422 098.2404 336.4463 0013415 071.5303 288.7337 14.29259654813959
Epoch (UTC): 11 December 2017 21:45:41
Eccentricity: 0.0013415
inclination: 98.2404°
perigee height: 784 km
apogee height: 804 km
right ascension of ascending node: 336.4463°
argument of perigee: 71.5303°
revolutions per day: 14.29259654
mean anomaly at epoch: 288.7337°
orbit number at epoch: 81395

The dashed part of the orbit path shows where the satellite is in the earth's shadow,  

DLR